Dewpoint
15 15 14 15 15 15 16 16 16 16 16 16 16 16 16 16 15 15 16 16 15 13 14 13 13 13 14 14 13 13 14 14 15 17 17 16 17 17 17 17 17 17
14 15 14 15 15 15 15 16 16 16 16 16 16 16 16 16 15 15 15 15 15 15 14 14 14 13 13 14 14 13 13 13 14 16 17 17 17 17 17 17 17 17
14 15 14 14 15 15 15 16 16 16 16 16 16 16 16 16 16 16 15 14 15 16 16 15 15 14 14 14 13 13 14 13 14 16 17 17 16 16 17 17 16 16
13 14 15 15 15 15 15 16 16 16 16 16 16 16 16 16 16 16 16 15 14 15 15 15 15 15 15 14 12 13 15 14 14 15 15 15 16 16 16 16 16 16
14 14 14 15 15 15 15 15 16 16 16 16 16 16 16 16 16 16 16 16 15 14 15 15 14 15 15 14 13 14 16 16 17 16 15 14 15 16 17 17 17 17
15 15 14 14 14 15 15 15 15 16 16 16 16 16 16 16 16 16 16 16 16 16 16 16 16 16 16 16 16 16 17 17 17 18 17 16 17 17 17 17 17 18
16 15 14 14 14 14 14 14 15 15 15 15 15 16 16 16 16 16 16 16 16 16 16 17 17 17 17 18 18 17 17 17 17 17 17 16 17 18 17 17 18 17
15 15 15 14 14 14 14 14 14 15 15 15 15 15 16 16 16 16 16 16 16 17 17 17 18 17 17 18 18 18 18 18 17 17 17 17 16 17 18 18 17 15
16 15 15 15 14 13 13 13 13 14 15 15 15 15 15 16 16 16 16 16 16 16 16 17 18 18 18 18 18 18 18 17 17 17 17 17 17 17 18 17 15 14
16 15 15 15 14 13 12 12 12 13 14 14 14 14 14 15 15 15 16 16 15 14 14 15 16 17 17 18 18 17 17 16 15 15 15 16 16 17 17 16 14 14
16 15 15 15 15 13 13 12 12 11 12 13 14 13 13 14 15 16 16 15 12 12 13 13 14 14 15 16 17 16 15 15 14 14 14 14 14 16 16 15 15 14
16 15 15 15 15 14 13 13 12 11 11 12 13 13 13 13 14 16 16 13 11 11 12 12 12 12 13 14 16 16 15 15 15 15 15 14 15 16 15 14 14 14
16 16 15 15 15 15 14 13 13 13 12 12 12 12 13 12 13 15 15 11 9 9 10 10 10 11 12 13 15 16 15 15 15 15 15 15 15 16 15 15 15 15
15 16 16 16 16 16 15 13 13 13 12 12 13 12 13 12 12 13 14 12 12 10 9 9 9 10 13 13 15 16 16 15 15 15 15 15 15 16 16 15 15 15
14 15 16 16 16 15 14 13 13 14 14 14 14 13 13 13 12 13 13 14 15 13 9 7 9 12 13 14 15 16 16 16 16 15 16 15 16 17 17 16 15 15
14 14 14 15 15 14 14 14 13 14 15 15 15 14 14 13 13 13 13 13 14 14 11 9 11 14 14 13 15 16 16 16 16 15 16 16 16 16 17 16 16 15
14 14 14 14 14 14 14 14 14 14 14 15 15 15 14 12 11 12 12 13 13 14 14 14 14 15 13 12 15 16 16 16 16 16 16 16 15 16 16 16 16 16
14 14 14 14 14 14 14 14 14 14 14 14 14 15 14 13 11 10 10 11 13 14 15 15 16 15 12 12 14 16 16 16 16 16 16 16 16 15 15 16 16 17
16 15 15 15 15 14 14 14 14 14 14 14 13 14 15 15 14 12 10 9 11 13 13 15 15 13 10 11 14 16 16 16 15 16 16 16 16 16 16 16 17 17
17 16 15 16 16 15 14 14 14 14 14 14 13 13 14 14 14 14 13 10 10 11 13 14 14 12 9 11 13 15 16 15 15 15 15 15 15 16 16 17 17 17
17 17 16 16 16 16 15 14 14 14 14 14 14 14 14 14 14 14 14 12 10 11 13 14 13 11 11 12 14 15 15 15 15 15 16 16 16 16 16 17 17 17
16 17 17 16 16 16 16 15 14 14 14 15 15 15 14 14 13 14 15 14 12 12 14 15 13 13 13 13 14 15 15 15 15 15 16 16 16 16 16 16 17 17
16 16 16 16 16 16 16 16 16 15 15 16 16 15 15 15 14 15 15 15 14 14 15 15 14 14 15 14 15 16 15 15 16 15 16 16 15 16 16 16 16 16
16 16 16 16 16 16 16 16 16 16 15 16 16 15 15 16 15 15 15 16 15 14 14 15 16 16 16 15 16 16 16 16 16 16 15 15 15 16 16 16 16 16
16 16 16 16 16 17 17 17 16 16 16 16 16 16 16 16 17 16 15 15 15 14 15 16 16 16 16 16 16 16 16 16 16 16 16 16 15 15 16 16 16 16
15 15 16 16 16 16 17 17 17 17 17 17 17 16 17 17 17 17 16 15 14 15 16 16 16 16 16 16 16 16 16 16 16 16 16 16 16 16 16 16 15 15
Wind_Speed
19 18 17 16 14 13 12 11 10 10 10 10 10 9 10 10 11 11 11 11 11 10 10 10 10 9 8 8 8 8 8 9 8 8 8 8 7 7 8 8 8 9
20 18 18 17 16 15 14 12 11 11 11 11 10 10 10 10 10 11 11 12 11 10 10 10 9 9 8 8 9 8 9 9 8 7 8 9 8 8 9 9 9 9
20 19 19 18 16 16 14 13 12 12 12 11 11 11 10 10 10 10 11 12 11 10 10 9 9 9 9 9 9 9 8 9 8 7 8 9 9 9 9 9 9 9
20 20 19 18 17 16 14 14 14 13 12 12 11 11 11 10 10 10 11 11 11 10 10 10 9 9 9 9 9 9 9 9 9 9 10 10 9 9 9 9 9 9
20 20 19 18 18 16 15 15 15 14 13 13 12 11 12 13 12 10 10 10 10 10 10 10 10 10 10 10 10 9 9 9 9 10 11 10 9 9 8 8 8 9
20 20 20 19 18 18 17 16 15 15 14 13 13 12 12 13 12 11 10 10 10 9 9 9 9 9 9 9 11 11 10 9 8 9 11 10 9 8 8 8 8 9
20 20 20 19 19 18 18 17 16 16 15 14 14 13 13 12 12 11 11 11 10 10 9 9 10 11 10 9 10 11 11 11 10 11 12 11 10 10 10 9 10 11
20 20 19 19 19 19 19 18 17 16 16 16 15 14 14 13 12 12 11 11 10 10 10 10 10 11 10 8 9 10 11 10 10 11 12 12 12 13 12 11 13 14
20 20 20 20 20 20 20 19 18 17 17 17 16 15 14 14 13 13 12 12 12 12 12 12 11 11 9 9 9 10 10 10 10 11 12 13 14 13 14 15 16 16
20 20 20 21 20 20 20 20 19 18 17 17 16 16 15 14 14 13 14 15 14 14 14 13 12 12 10 10 10 11 11 11 11 11 13 14 13 13 16 19 18 16
20 20 21 21 21 21 21 21 20 19 18 18 17 17 16 15 15 14 15 16 16 15 15 14 13 13 13 12 12 13 12 11 11 12 12 13 12 14 16 17 17 16
20 20 21 21 22 22 21 20 20 20 19 19 18 17 17 16 16 15 16 17 16 15 16 15 14 14 15 15 13 13 12 11 12 12 12 12 12 13 14 14 14 15
21 20 20 21 21 22 22 22 20 20 20 19 18 18 18 18 17 17 18 18 17 17 17 16 16 15 15 16 14 12 13 13 13 12 12 12 12 12 14 14 14 15
23 21 20 20 21 22 23 23 21 20 20 19 19 19 18 18 18 17 18 17 16 17 17 17 17 16 16 16 14 13 14 14 13 13 12 13 12 12 13 14 15 15
26 24 23 22 23 23 24 23 22 21 20 20 20 19 19 19 18 18 18 17 16 17 18 17 17 17 17 16 14 14 14 13 12 12 13 13 12 11 13 14 14 13
27 26 26 25 26 26 25 24 23 22 21 21 21 21 20 20 19 19 18 18 17 18 19 18 17 17 18 16 15 15 14 12 12 12 13 13 12 12 13 13 12 12
26 26 26 27 27 28 27 26 24 24 23 23 22 22 22 23 23 22 20 19 18 18 18 17 16 18 19 17 16 15 13 12 14 13 13 13 12 13 13 11 11 11
25 27 26 27 27 28 28 27 26 25 25 25 24 23 22 23 24 24 23 22 19 18 18 16 17 21 20 17 16 15 13 13 14 14 13 13 12 13 12 11 11 9
23 26 27 26 27 28 28 28 27 27 26 25 24 24 22 22 22 23 24 24 21 21 20 17 20 24 21 17 17 16 14 14 14 13 13 13 12 12 12 12 12 9
20 23 26 27 27 27 28 28 27 27 27 25 24 24 24 23 22 21 23 24 24 23 21 20 23 25 20 17 18 16 15 14 13 13 14 14 13 13 13 13 11 9
19 21 25 27 27 27 28 28 28 27 27 26 26 26 25 25 23 21 22 23 24 23 21 22 25 24 20 19 18 16 15 15 14 14 13 14 15 14 14 15 13 12
21 21 23 26 28 28 28 28 28 28 26 25 25 25 25 26 25 22 21 22 23 22 21 23 25 23 20 19 18 17 16 15 16 16 15 16 18 17 17 17 15 15
22 23 24 25 27 28 29 28 28 28 27 25 24 24 24 25 25 24 22 22 22 22 23 25 25 21 20 19 18 17 16 15 17 18 19 19 19 18 19 19 17 15
21 24 26 26 27 27 28 28 28 29 28 26 24 24 24 24 25 25 25 24 23 24 26 27 25 21 20 20 19 17 16 16 17 19 21 20 19 20 20 18 14 13
19 22 25 27 28 26 26 27 28 28 27 26 25 24 24 24 23 23 25 26 26 26 27 26 23 21 20 19 19 18 18 18 18 18 18 18 18 18 16 12 9 8
19 21 24 26 28 28 28 27 26 26 27 26 25 23 23 24 22 20 23 26 27 25 24 24 23 22 20 19 19 19 20 20 19 18 17 15 14 12 10 7 6 4
Wind_Direction
212 215 216 216 219 220 218 223 225 225 225 222 220 219 218 220 221 216 216 226 233 234 236 238 240 243 246 252 254 250 247 248 248 252 260 264 265 268 273 277 280 285
214 215 217 215 218 220 217 219 224 226 229 228 223 221 222 222 225 224 222 226 232 235 238 239 240 244 246 247 251 252 252 254 253 253 260 264 264 266 271 272 275 280
217 217 218 216 217 220 218 221 226 226 228 231 230 227 225 226 228 231 231 229 229 232 237 239 241 247 249 250 252 253 252 256 255 248 253 262 267 269 271 276 281 284
219 218 219 217 218 219 219 221 226 228 227 229 231 229 226 225 225 231 236 235 231 230 234 238 238 242 245 249 252 252 252 258 259 256 257 262 268 273 278 282 284 285
220 220 219 218 218 219 220 221 223 226 228 228 228 228 229 229 227 229 234 238 239 239 241 245 246 244 249 253 253 251 253 259 265 270 273 274 274 278 283 285 285 287
220 221 222 221 220 219 220 221 223 225 226 228 227 227 230 232 232 230 229 231 236 238 239 243 245 243 245 253 255 252 253 258 261 265 274 281 282 278 277 280 281 280
219 222 223 224 223 222 222 221 223 225 225 226 227 227 227 229 231 230 229 230 231 234 237 237 241 241 239 247 256 257 259 265 268 270 276 281 280 276 273 269 265 266
219 220 223 224 224 224 224 223 224 225 225 225 227 228 229 228 229 228 229 231 230 234 237 236 242 248 248 248 255 262 267 271 275 280 284 282 280 279 275 266 261 266
221 220 222 225 224 224 225 224 224 225 226 227 227 228 230 229 228 227 228 230 229 233 237 238 241 246 248 251 258 265 270 271 271 275 278 280 281 279 271 268 270 273
225 223 222 224 224 225 225 225 225 226 227 229 228 228 229 229 230 227 228 234 237 239 243 246 247 248 250 254 257 258 260 264 268 270 272 274 274 268 266 271 276 278
228 226 225 225 224 224 225 225 226 226 228 230 230 229 229 229 230 228 231 240 246 248 250 252 254 255 255 253 252 256 262 264 267 269 271 271 268 265 270 276 277 277
228 228 228 227 226 226 225 225 227 227 229 231 231 231 230 229 230 229 234 244 249 252 254 256 258 260 259 255 253 259 267 265 263 265 269 272 269 269 275 278 275 276
231 228 229 229 229 229 227 225 226 228 230 230 231 232 231 230 229 229 240 250 253 253 255 257 261 262 259 254 251 257 266 266 261 259 262 266 265 266 272 274 274 277
236 232 230 229 229 231 232 229 226 227 230 230 231 232 232 232 230 230 240 248 250 252 254 256 260 260 256 252 250 256 266 267 261 256 257 261 263 267 271 274 276 276
238 239 237 234 235 238 240 237 231 229 230 230 231 232 232 232 231 229 235 238 242 251 255 257 257 255 252 251 249 254 262 262 259 255 254 260 264 265 269 275 278 275
238 242 243 243 245 246 245 244 241 238 235 232 232 233 233 233 232 230 231 232 237 247 254 257 254 248 250 249 245 252 258 258 260 260 255 258 263 264 267 271 275 274
238 242 244 246 248 249 248 247 246 245 243 240 237 235 235 237 237 236 235 233 234 239 245 249 246 244 249 248 243 249 256 261 269 269 261 258 259 263 267 267 268 273
240 241 244 245 246 248 249 249 248 247 247 246 243 240 238 238 240 240 240 238 233 232 236 238 240 246 250 247 243 245 251 264 273 272 264 258 255 261 268 265 263 261
240 241 243 244 245 245 246 247 249 247 246 245 245 244 242 240 239 238 240 241 237 236 236 233 239 249 251 245 240 240 246 259 269 267 262 258 254 259 265 265 265 257
236 239 241 242 243 244 243 244 246 247 246 245 245 245 245 243 241 238 238 240 240 240 239 236 240 248 249 242 237 238 246 255 260 259 259 258 256 257 258 260 262 256
235 236 236 237 239 240 240 241 242 244 246 246 245 244 243 243 242 240 238 239 241 240 237 235 240 246 247 240 235 237 244 248 249 252 254 256 257 255 254 255 254 254
237 237 236 235 236 237 237 238 239 242 244 244 242 241 242 243 243 241 239 239 240 238 232 234 241 245 243 237 233 236 243 245 246 247 247 251 256 256 256 256 257 261
237 238 238 236 235 234 235 236 237 240 241 240 239 237 238 240 241 239 237 235 234 232 230 235 242 243 238 234 233 237 243 244 245 247 251 256 260 259 257 257 260 265
241 238 238 237 236 234 234 233 234 237 239 239 238 237 237 237 237 235 235 234 233 232 231 235 239 239 237 234 233 239 245 246 245 248 256 261 261 257 256 258 262 266
246 242 238 237 237 235 233 232 233 234 236 236 236 236 235 234 232 231 234 236 235 233 232 234 238 240 239 236 237 242 244 241 243 250 258 261 256 250 250 254 261 267
247 245 240 238 237 235 234 232 231 231 232 232 233 232 229 228 225 227 235 239 237 234 233 235 239 241 241 240 240 243 244 245 251 257 259 255 247 244 247 251 252 244
Height
1568 1569 1570 1572 1573 1574 1574 1575 1576 1576 1576 1577 1577 1578 1578 1579 1579 1580 1581 1581 1581 1581 1582 1582 1583 1583 1584 1584 1584 1585 1585 1586 1586 1587 1587 1586 1587 1587 1587 1587 1587 1587
1566 1567 1569 1570 1571 1571 1572 1573 1574 1574 1575 1575 1576 1577 1577 1577 1577 1578 1578 1579 1579 1580 1581 1581 1582 1582 1582 1583 1583 1584 1584 1584 1585 1586 1586 1585 1586 1586 1586 1586 1586 1586
1564 1565 1567 1568 1569 1570 1571 1572 1572 1573 1573 1574 1574 1575 1576 1576 1576 1577 1577 1577 1578 1579 1580 1580 1580 1581 1581 1582 1582 1582 1583 1583 1584 1584 1585 1584 1584 1584 1585 1585 1585 1585
1562 1564 1565 1566 1568 1569 1569 1570 1571 1571 1572 1572 1573 1573 1574 1575 1576 1576 1576 1576 1577 1578 1578 1579 1579 1580 1580 1580 1581 1581 1582 1582 1582 1583 1583 1583 1583 1583 1583 1584 1584 1584
1560 1562 1563 1564 1566 1567 1568 1568 1569 1569 1570 1571 1571 1572 1572 1573 1574 1575 1575 1576 1576 1577 1577 1578 1578 1579 1579 1579 1580 1580 1581 1581 1582 1581 1581 1581 1582 1582 1582 1582 1582 1582
1558 1559 1560 1562 1563 1564 1565 1566 1567 1568 1569 1570 1570 1571 1571 1572 1572 1573 1574 1575 1575 1576 1577 1577 1578 1578 1579 1579 1579 1579 1580 1581 1581 1581 1580 1580 1580 1581 1581 1581 1581 1580
1556 1557 1558 1560 1561 1562 1563 1564 1565 1566 1567 1568 1568 1569 1570 1571 1571 1572 1573 1573 1574 1575 1576 1576 1577 1577 1578 1578 1578 1578 1579 1579 1580 1579 1579 1579 1579 1579 1578 1578 1578 1577
1553 1554 1556 1557 1558 1560 1561 1562 1563 1564 1565 1566 1567 1568 1568 1569 1570 1570 1571 1572 1572 1573 1574 1575 1575 1575 1576 1577 1577 1578 1578 1579 1579 1579 1578 1578 1577 1577 1576 1576 1575 1574
1551 1552 1553 1554 1556 1557 1559 1560 1561 1562 1563 1564 1565 1566 1566 1567 1568 1569 1569 1570 1570 1571 1572 1572 1573 1574 1575 1575 1576 1576 1576 1577 1578 1578 1578 1577 1576 1576 1575 1574 1573 1572
1548 1549 1551 1552 1553 1555 1556 1558 1559 1560 1561 1561 1563 1564 1565 1565 1566 1567 1567 1567 1568 1569 1569 1570 1571 1572 1573 1573 1574 1573 1573 1574 1575 1575 1575 1574 1574 1574 1573 1572 1571 1571
1546 1547 1548 1549 1550 1552 1553 1555 1557 1558 1559 1560 1560 1562 1563 1564 1564 1565 1565 1565 1566 1567 1568 1568 1569 1570 1570 1571 1571 1571 1572 1572 1572 1572 1571 1571 1571 1571 1571 1570 1570 1570
1543 1545 1546 1547 1548 1549 1551 1553 1554 1555 1557 1557 1558 1559 1560 1561 1562 1563 1563 1563 1564 1565 1566 1566 1567 1568 1568 1568 1569 1570 1570 1570 1569 1569 1569 1569 1568 1568 1568 1568 1568 1568
1540 1542 1543 1545 1546 1546 1548 1549 1551 1553 1554 1555 1556 1557 1558 1559 1560 1561 1560 1561 1562 1563 1564 1564 1565 1565 1565 1566 1567 1567 1567 1567 1567 1567 1567 1567 1567 1567 1566 1566 1566 1567
1537 1539 1540 1542 1543 1544 1545 1546 1548 1550 1551 1553 1554 1555 1556 1557 1558 1559 1558 1559 1560 1560 1561 1562 1562 1563 1563 1563 1565 1565 1565 1565 1565 1565 1565 1565 1565 1565 1564 1564 1564 1565
1533 1535 1537 1539 1540 1541 1542 1543 1545 1547 1548 1550 1551 1552 1553 1554 1555 1556 1557 1557 1558 1558 1558 1559 1560 1560 1560 1561 1562 1563 1563 1563 1563 1564 1564 1563 1563 1563 1563 1562 1562 1563
1530 1532 1533 1535 1536 1538 1539 1540 1542 1544 1545 1546 1547 1548 1550 1551 1552 1553 1554 1555 1555 1555 1556 1556 1557 1558 1558 1559 1560 1560 1561 1562 1562 1562 1562 1562 1562 1562 1561 1561 1561 1561
1527 1528 1530 1531 1533 1534 1536 1537 1539 1540 1542 1543 1544 1545 1546 1547 1548 1549 1550 1552 1553 1553 1554 1554 1555 1555 1555 1556 1558 1558 1559 1559 1560 1560 1560 1560 1560 1560 1559 1559 1559 1559
1524 1525 1526 1528 1529 1531 1532 1533 1535 1536 1538 1539 1540 1542 1543 1543 1544 1545 1546 1548 1549 1550 1551 1552 1552 1551 1552 1554 1555 1556 1557 1557 1558 1558 1558 1558 1559 1558 1558 1558 1557 1558
1521 1522 1523 1525 1526 1527 1529 1530 1531 1533 1534 1535 1537 1538 1540 1540 1541 1542 1543 1544 1546 1547 1548 1549 1549 1548 1549 1552 1552 1554 1555 1555 1555 1556 1556 1556 1556 1556 1556 1556 1556 1557
1518 1518 1519 1521 1522 1524 1525 1526 1528 1529 1530 1532 1534 1535 1536 1537 1538 1539 1540 1541 1542 1543 1544 1546 1545 1544 1547 1549 1550 1551 1552 1553 1553 1553 1554 1554 1554 1554 1554 1554 1555 1555
1514 1515 1516 1517 1519 1520 1521 1522 1524 1525 1527 1529 1530 1531 1532 1533 1535 1536 1537 1538 1539 1540 1541 1541 1541 1542 1544 1546 1547 1548 1549 1550 1550 1551 1551 1551 1551 1552 1552 1552 1553 1553
1510 1511 1512 1513 1515 1516 1517 1518 1520 1521 1523 1525 1526 1527 1529 1530 1531 1533 1534 1535 1536 1537 1538 1537 1537 1539 1541 1543 1544 1545 1546 1547 1547 1548 1548 1548 1548 1549 1550 1550 1550 1550
1507 1508 1509 1509 1511 1512 1513 1514 1516 1517 1519 1521 1522 1524 1525 1526 1528 1529 1530 1531 1532 1533 1534 1534 1535 1537 1539 1540 1541 1542 1543 1544 1544 1544 1545 1545 1546 1547 1546 1547 1548 1548
1503 1504 1505 1506 1507 1508 1509 1510 1512 1514 1516 1517 1519 1520 1522 1523 1524 1525 1527 1528 1529 1530 1531 1531 1533 1535 1536 1538 1539 1540 1541 1541 1541 1541 1542 1543 1543 1543 1543 1544 1545 1546
1500 1500 1501 1502 1502 1503 1505 1506 1508 1510 1512 1513 1515 1517 1518 1519 1521 1522 1523 1525 1526 1527 1528 1530 1531 1532 1534 1535 1536 1537 1538 1538 1538 1539 1540 1541 1541 1541 1542 1542 1543 1543
1496 1496 1497 1497 1498 1499 1500 1501 1503 1506 1508 1509 1511 1513 1514 1516 1518 1519 1520 1521 1523 1524 1526 1528 1528 1529 1531 1532 1533 1534 1534 1534 1535 1536 1538 1538 1539 1539 1539 1540 1540 1541